Weather in Pesochny

Russia / Saint-Petersburg and Leningrad Oblast     60°07′26″N   30°09′37″E
temp.,
°C
wind,
m/s
gust,
m/s
humid.,
%
clouds,
%
prec.,
mm/h
press.,
hPa
HPBL,
m
10 april, sat
sat1000:00+3ssw71791100 0.1 10071378
03:00+3ssw71696100 0.1 10071385
06:00+3ssw61389100 0.1 10071198
09:00+5ssw7137299 0.2 10081562
12:00+7ssw71366100 0.2 10081559
15:00+5sw61289100 1.9 10091129
18:00+5wsw5115686 0.8 10101758
21:00+3wsw4116739 0.9 1013760
11 april, sun
sun1100:00+1sw411713 0.0 1016543
03:000ssw411815 0.0 1019323
06:000ssw411761 0.0 1020293
09:00+4sw411590 0.0 1022532
12:00+8wsw47445 0.0 10251263
15:00+8wnw35425 0.0 10261059
18:00+8nw114491 0.0 1027435
21:00+5se2259100 0.0 102824
12 april, mon
mon1200:00+4se2660100 0.0 1028113
03:00+4ese376389 0.0 1028167
06:00+3se4128385 0.0 1026287
09:00+8sse5138162 0.0 1025411
12:00+14s5105458 0.0 1024919
15:00+17s594360 0.0 10231483
18:00+15s4948100 0.0 1022960
21:00+10se38705 0.0 1021164
13 april, tue
tue1300:00+8sse26805 0.0 1020103
03:00+6sse3686100 0.0 1019116
06:00+5sse368899 0.0 1018105
09:00+9s377280 0.0 1018265
12:00+13ssw465483 0.0 1018763
15:00+13w3552100 0.0 1018857
18:00+8wnw248296 0.0 1018157
21:00+6wnw239244 0.0 101878
14 april, wed
wed1400:00+4w129682 0.0 101848
03:00+4w3592100 0.0 1018130
06:00+3wnw368599 0.0 1017214
09:00+3wnw3586100 0.0 1018255
12:00+5wnw4576100 0.0 1018485
15:00+3w3579100 0.1 1018345
18:00+2w2682100 0.2 1019234
21:00+2w268180 0.2 1019188